Weather in Kaalamo

Russia / Republic of Karelia     61°54′07″N   30°29′50″E
temp.,
°C
wind,
m/s
gust,
m/s
humid.,
%
clouds,
%
prec.,
mm/h
press.,
hPa
HPBL,
m
6 august, fri
fri600:00+10ene118117 0.0 101713
03:00+12ne2273100 0.0 101846
06:00+11ene267756 0.0 1018132
09:00+17ene365336 0.0 1018602
12:00+20ene563662 0.0 10172465
15:00+20ene4638100 0.0 10172378
18:00+19e145198 0.0 1016481
21:00+14ene28625 0.0 1017155
7 august, sat
sat700:00+11ne311745 0.0 1017256
03:00+10ne311755 0.0 1017270
06:00+11ene413810 0.0 1016582
09:00+16e6106953 0.0 1015851
12:00+20e695582 0.0 10141439
15:00+21e6956100 0.0 10131454
18:00+18e61270100 0.0 10121180
21:00+15e51489100 0.4 1012842
8 august, sun
sun800:00+14ene61595100 1.3 1011935
03:00+14e51396100 3.7 1010904
06:00+15e41198100 0.7 1010632
09:00+15e41098100 0.8 1011574
12:00+15e3998100 0.2 1011589
15:00+15e3797100 0.3 1012477
18:00+17ese238740 0.1 1013515
21:00+14e249897 0.1 101483
9 august, mon
mon900:00+13e2699100 0.0 1015153
03:00+13e3799100 0.0 1015212
06:00+14ese3696100 0.0 1015302
09:00+16ese3686100 0.0 1014431
12:00+21se456592 0.0 10141034
15:00+19sse387592 0.0 1015503
18:00+20se397139 0.0 1013585
21:00+17se389082 0.4 1013308
10 august, tue
tue1000:00+15sse249947 0.8 1014109
03:00+15ssw3799100 1.3 1014373
06:00+16ssw369688 0.0 1015384
09:00+18ssw368525 0.0 1016562
12:00+22ssw355625 0.0 10161483
15:00+23ssw465496 0.4 10161693
18:00+20sse366598 0.1 1017475
21:00+17sse2385100 0.1 101770